GFSFLT1_925_rhum_027.txt.gz
RH
38 34 32 35 46 66 73 84 92 78 77 71 85 75 79 70 69 64 63 63 63 55 58 61 59 53 53 59 61 53 46 39
47 44 44 47 64 72 83 94 90 90 78 72 70 69 64 62 56 59 58 58 57 55 50 54 56 54 52 56 54 46 39 36
46 51 53 54 77 82 82 82 88 82 77 70 59 57 54 50 53 59 56 56 54 49 59 54 51 48 43 39 46 48 42 39
47 51 65 71 79 88 79 78 82 67 52 52 52 53 54 49 51 50 55 55 50 50 51 49 47 45 41 43 46 50 45 42
44 50 72 79 81 84 76 73 56 50 50 45 47 42 42 48 49 50 48 54 49 43 42 47 50 50 50 48 43 50 50 45
44 46 57 73 80 72 56 50 48 52 47 47 48 46 49 46 44 43 38 40 40 41 43 46 53 52 50 52 53 54 54 51
37 42 47 54 61 52 50 47 47 49 50 50 49 45 36 33 37 35 32 34 34 32 36 42 42 44 49 50 52 56 60 60
35 38 41 48 51 51 48 44 46 49 48 42 39 39 38 42 39 32 33 28 29 31 38 38 40 43 47 50 60 65 58 58
32 33 35 40 46 47 43 44 46 46 39 37 42 40 39 33 32 33 33 33 32 35 37 39 42 48 48 57 63 61 62 66
31 32 34 39 44 46 44 44 41 37 42 47 44 41 35 30 33 36 31 33 33 32 40 40 40 43 46 58 62 63 62 59
30 31 36 40 43 46 47 42 36 44 42 48 42 35 34 32 36 35 34 36 39 41 42 43 46 47 45 45 53 55 56 65
31 32 38 41 43 47 44 41 42 44 42 39 36 40 32 34 36 34 34 39 42 43 42 44 45 44 44 53 74 76 70 68
29 34 38 41 44 45 45 45 42 41 41 41 43 33 30 32 33 32 36 41 45 45 42 45 44 43 52 69 65 78 80 68
29 34 38 41 43 41 46 43 42 44 45 44 31 30 31 32 34 33 38 42 44 45 44 45 45 48 50 62 68 67 63 64
30 33 37 40 40 40 45 41 48 47 43 33 26 27 32 36 34 35 39 44 46 45 46 46 49 54 54 58 59 65 69 64
32 35 36 38 39 40 39 42 50 44 38 30 26 30 36 37 34 39 44 48 46 47 45 45 55 58 60 68 64 60 59 54
32 34 36 37 37 40 37 43 45 44 35 31 30 34 37 34 36 44 46 42 43 45 46 48 60 59 62 61 56 62 54 46
31 33 36 37 38 40 37 42 48 39 32 30 32 36 36 36 37 38 38 40 46 48 48 53 63 65 72 62 58 62 55 50
29 32 36 37 37 38 41 46 36 34 31 31 34 32 32 36 38 38 38 42 46 47 48 57 61 67 68 64 58 65 55 56

GFSFLT1_925_rhum_030.txt.gz
RH
28 27 29 36 58 63 68 79 88 71 62 70 64 65 67 68 65 61 64 66 61 56 56 58 60 57 53 54 57 55 49 44
34 30 29 36 67 70 73 88 88 85 81 77 76 73 68 64 58 59 58 60 57 55 56 55 53 54 51 43 41 49 50 47
43 40 40 62 72 85 84 89 82 86 76 68 66 62 62 56 58 60 58 55 55 54 59 55 51 48 45 46 46 48 51 48
44 45 49 74 76 85 84 86 84 82 72 66 60 57 53 53 57 58 58 55 51 50 46 44 48 50 51 51 50 51 52 51
41 46 60 70 78 77 79 81 81 76 66 55 53 53 51 49 52 54 56 54 49 46 44 47 51 54 54 54 52 53 52 57
42 59 73 75 79 82 76 76 67 56 48 48 49 53 51 48 47 43 39 39 41 39 38 40 43 44 45 49 51 54 55 59
38 63 71 71 79 77 71 65 50 52 48 49 48 46 42 40 39 40 35 35 33 30 35 40 39 40 44 46 50 54 61 63
42 48 60 70 70 60 53 46 48 49 51 52 45 37 36 43 43 36 34 30 31 32 37 39 40 41 44 48 54 60 63 62
42 43 46 55 53 52 49 45 47 50 48 42 40 44 43 38 37 34 35 34 32 34 36 40 41 41 42 46 52 58 64 65
37 37 43 48 50 51 45 44 46 48 40 41 44 40 37 30 32 36 38 33 33 34 41 43 43 45 47 48 47 55 62 64
34 33 38 41 46 47 44 44 44 42 42 47 46 39 31 34 38 40 36 35 38 41 43 42 42 45 45 45 59 64 66 73
33 32 34 38 43 47 47 46 41 41 44 47 43 35 36 39 40 37 36 35 40 42 44 43 42 44 44 51 56 54 63 74
32 31 34 38 43 45 49 46 39 44 45 43 41 38 40 38 34 34 33 36 40 44 45 43 43 44 47 49 62 66 64 72
31 32 34 38 41 44 48 44 43 45 42 42 43 42 39 32 33 35 34 36 41 44 46 45 45 46 50 53 60 64 68 70
28 31 35 38 41 44 45 47 45 42 44 44 46 41 34 32 36 37 35 38 42 46 46 46 47 49 56 57 59 62 68 61
27 30 36 38 42 43 43 47 44 46 47 46 38 37 31 36 38 35 37 42 47 48 45 46 46 54 59 61 58 59 61 57
24 28 31 38 40 41 43 44 45 50 47 42 37 49 34 38 36 36 40 45 45 42 46 47 48 58 59 61 57 56 58 57
23 27 30 33 38 40 43 41 45 47 47 41 46 34 37 37 36 36 38 41 40 43 47 48 52 63 66 67 59 58 54 59
24 25 27 31 36 40 40 38 45 48 45 40 36 34 34 33 37 42 45 38 41 46 48 50 56 65 67 73 62 58 61 60

GFSFLT1_925_rhum_036.txt.gz
RH
73 78 77 77 73 64 59 70 73 74 74 68 63 62 59 61 66 71 69 64 61 56 54 56 57 56 54 49 41 42 46 52
61 63 70 73 68 62 60 72 72 72 74 68 67 66 68 68 64 62 62 63 62 55 58 58 56 55 48 45 49 50 52 51
54 59 65 68 66 62 61 69 74 72 69 65 68 68 70 63 65 64 62 59 58 58 57 55 49 43 48 51 51 53 54 52
54 60 67 67 79 71 64 72 73 71 65 66 71 69 66 70 67 63 59 56 54 52 49 42 46 52 55 54 55 55 55 55
61 64 75 77 83 76 79 81 76 68 65 77 70 68 72 65 62 59 57 56 52 46 44 49 53 53 46 44 46 49 57 62
75 74 81 82 83 81 80 77 77 76 68 72 72 64 65 62 61 59 57 54 50 45 48 52 45 39 37 37 40 46 54 63
81 86 91 90 89 91 79 78 78 77 76 73 78 65 64 61 60 59 56 54 50 46 40 37 35 35 36 38 41 46 59 63
93 93 93 96 94 97 86 84 84 81 76 80 83 67 61 56 60 57 58 48 38 35 34 40 37 37 36 39 43 47 50 65
87 90 92 96 97 90 87 90 89 84 82 80 77 61 57 59 50 43 38 34 34 36 38 38 38 38 40 42 45 46 57 64
89 87 88 92 94 92 89 87 84 73 59 63 59 51 45 42 43 40 36 35 37 40 39 38 42 44 42 43 47 53 56 53
90 85 85 80 78 78 81 79 64 53 48 44 42 42 42 43 38 38 36 38 39 39 42 44 45 44 43 42 47 56 52 53
83 82 79 72 70 70 69 64 56 52 49 46 43 41 38 35 35 37 39 39 43 50 54 45 44 45 43 44 52 51 54 58
68 73 77 73 67 61 53 51 52 51 49 46 43 40 42 35 36 39 44 53 55 48 43 44 46 45 45 45 50 55 58 58
56 62 70 70 66 61 58 52 53 52 47 45 42 41 36 33 39 44 52 52 48 42 44 48 47 46 45 48 53 56 58 61
50 52 59 63 64 62 62 62 54 52 47 46 45 42 35 38 48 54 51 41 44 42 44 47 47 46 46 53 54 58 61 64
52 51 53 54 58 60 61 61 55 54 52 51 48 42 41 54 58 48 50 48 43 44 47 48 48 48 46 50 54 60 62 60
37 45 53 54 57 58 60 61 60 58 53 51 48 50 60 56 57 63 52 58 50 45 45 51 46 46 50 51 58 60 60 57
39 40 56 56 56 56 62 64 58 55 52 52 53 54 57 66 64 58 69 65 53 50 41 48 51 49 52 54 58 61 61 59
44 49 49 56 62 71 70 67 64 58 58 57 60 58 55 59 68 70 66 61 57 50 54 52 53 54 55 58 63 64 66 60

GFSFLT1_925_rhum_042.txt.gz
RH
80 74 79 77 73 70 72 78 85 80 72 63 73 90 89 76 68 69 72 74 70 65 62 59 57 53 52 48 37 38 35 42
79 74 75 77 75 76 72 81 86 84 77 76 92 95 85 71 66 64 71 74 71 66 60 57 54 54 50 40 41 42 46 50
85 82 80 77 73 73 75 75 81 85 74 74 86 86 80 70 66 69 72 72 68 60 56 56 56 51 42 47 46 48 54 56
87 90 88 86 84 81 78 79 81 82 76 80 86 85 76 70 69 71 74 70 64 59 58 56 52 46 50 51 51 52 54 60
84 85 88 90 88 83 81 83 83 84 81 84 83 79 74 69 65 67 68 70 64 60 57 54 46 53 50 44 44 42 41 45
78 82 83 85 84 82 83 86 86 82 84 85 82 75 69 64 66 67 67 73 64 61 56 48 53 45 39 42 36 34 32 48
69 71 75 79 81 81 82 85 86 86 85 86 81 74 73 72 72 74 70 68 65 58 51 53 44 43 46 52 45 41 36 49
71 76 79 78 78 82 85 86 89 87 84 86 85 83 79 77 71 74 72 66 60 54 53 46 45 66 52 66 37 32 38 43
69 69 78 81 83 84 89 94 94 90 85 82 86 86 86 81 73 72 70 62 57 53 46 45 61 63 71 48 40 42 42 42
73 80 80 85 89 85 88 91 93 89 82 82 87 88 88 88 80 76 68 62 57 46 46 49 63 76 54 47 46 47 43 46
92 92 92 90 84 79 83 88 87 86 88 87 89 90 93 96 89 80 71 64 58 49 51 53 72 51 54 50 48 47 46 48
95 95 93 89 88 81 83 90 93 91 88 92 93 94 97 95 88 84 72 66 53 51 47 66 52 54 49 58 50 47 48 53
92 93 97 98 94 94 94 84 85 93 88 88 92 94 92 88 84 78 72 59 48 43 56 48 50 56 74 59 48 47 50 54
89 95 96 98 100 100 100 95 94 95 88 89 90 88 88 84 73 62 52 45 44 71 47 54 66 76 62 53 48 48 48 50
81 90 93 92 92 95 96 98 97 93 89 86 80 79 68 60 58 54 46 50 56 53 68 70 64 63 68 58 51 50 47 51
69 73 80 85 85 84 84 86 86 85 83 78 73 64 61 57 50 51 58 62 68 66 68 82 84 84 72 70 75 58 53 55
57 61 61 63 69 76 80 80 80 79 80 74 67 62 57 55 60 63 65 69 72 81 84 90 94 94 75 60 52 53 55 58
71 78 88 86 79 74 81 85 85 82 76 74 66 61 63 65 68 72 80 86 90 94 94 98 79 66 58 54 54 56 59 62
73 81 88 87 82 81 81 81 81 82 83 78 75 71 71 72 75 85 92 96 99 96 88 69 64 58 54 58 55 57 60 64

GFSFLT1_925_rhum_045.txt.gz
RH
74 82 79 80 84 84 82 76 80 90 76 66 55 62 75 87 84 83 79 74 68 64 60 59 58 57 54 50 40 37 41 47
70 78 84 80 83 84 83 82 83 91 84 76 81 91 86 90 86 82 80 77 73 66 62 60 60 54 51 44 39 44 49 35
69 77 82 84 79 82 85 90 89 88 81 69 80 86 93 89 75 69 68 71 73 70 65 62 56 53 48 44 43 48 41 42
70 77 80 81 82 81 85 88 89 85 89 83 77 85 91 90 77 74 75 75 73 69 63 58 56 52 46 48 44 39 47 60
63 73 77 79 83 84 80 86 84 87 90 89 80 79 84 88 80 76 74 77 72 65 60 57 55 47 49 46 36 34 44 51
60 66 72 77 84 85 81 85 81 82 87 89 86 83 85 88 82 77 79 76 70 64 60 57 52 50 47 39 34 34 38 36
56 61 70 78 91 86 86 92 88 93 93 91 89 90 86 82 80 79 75 77 72 65 60 56 51 50 41 50 56 52 45 50
54 61 73 75 88 92 94 93 94 94 97 92 92 91 87 82 74 71 74 75 75 66 61 55 51 43 54 55 81 69 39 36
51 56 65 74 82 87 92 92 90 98 98 93 98 92 89 81 75 72 73 71 70 71 62 55 46 49 62 88 51 40 40 40
51 54 63 70 79 85 90 91 89 97 98 100 100 98 90 87 83 80 80 76 71 72 61 52 51 66 80 58 46 44 45 44
59 59 64 70 78 84 90 88 88 92 97 99 99 99 91 93 92 91 88 83 77 71 60 51 57 67 56 54 48 51 47 46
66 68 70 73 81 85 88 86 88 92 98 99 99 98 94 97 96 98 96 89 84 67 61 54 60 65 58 53 63 68 51 47
68 72 79 81 81 83 86 92 93 92 94 90 93 97 100 100 100 100 100 92 80 67 65 55 72 66 59 66 76 67 60 56
69 73 78 83 88 92 93 96 93 93 92 95 100 100 100 100 100 100 97 92 84 74 61 66 72 61 69 73 80 71 62 52
69 76 77 83 88 91 97 100 100 99 100 99 98 100 100 100 97 92 88 83 74 60 66 74 70 76 79 80 75 69 66 62
62 64 70 80 85 87 91 95 94 95 95 94 94 89 88 87 81 70 64 61 65 75 74 72 76 85 90 87 96 80 78 75
64 66 65 68 75 82 91 92 91 90 90 88 82 80 74 65 63 63 65 72 71 70 78 87 90 95 98 98 96 86 69 67
66 74 78 81 86 90 92 93 91 88 86 83 82 70 68 70 69 71 75 83 92 91 92 96 98 98 86 72 63 63 70 69
70 74 79 82 83 87 89 89 89 86 83 80 81 75 76 76 79 91 97 93 92 92 93 98 99 79 64 60 61 59 56 53